Hourly Weather Kanye

Today, 25 October, Sunday

Time Temperature Precipitation Wind Pressure Humidity
00:00 +27°C° 0.2 mm 3 mps 651 mmHg 29%
01:00 +26°C° 0.2 mm 4 mps 651 mmHg 32%
02:00 +25°C° 0.2 mm 5 mps 651 mmHg 34%
03:00 +25°C° 0 mm 5 mps 651 mmHg 37%
04:00 +23°C° 0 mm 5 mps 651 mmHg 39%
05:00 +23°C° 0 mm 5 mps 651 mmHg 41%
06:00 +25°C° 0 mm 5 mps 652 mmHg 37%
07:00 +26°C° 0 mm 4 mps 652 mmHg 33%
08:00 +27°C° 0 mm 4 mps 653 mmHg 28%
09:00 +29°C° 0 mm 4 mps 653 mmHg 25%
10:00 +33°C° 0 mm 4 mps 653 mmHg 22%
11:00 +35°C° 0 mm 4 mps 653 mmHg 19%
12:00 +36°C° 0 mm 4 mps 652 mmHg 17%
13:00 +37°C° 0 mm 3 mps 652 mmHg 15%
14:00 +38°C° 0 mm 2 mps 652 mmHg 14%
15:00 +37°C° 0 mm 2 mps 651 mmHg 14%
16:00 +37°C° 0 mm 2 mps 651 mmHg 14%
17:00 +37°C° 0 mm 2 mps 650 mmHg 14%
18:00 +35°C° 0 mm 2 mps 650 mmHg 16%
19:00 +32°C° 0 mm 1 mps 650 mmHg 19%
20:00 +31°C° 0 mm 1 mps 650 mmHg 22%
21:00 +30°C° 0 mm 1 mps 650 mmHg 24%
22:00 +29°C° 0 mm 2 mps 650 mmHg 27%
23:00 +28°C° 0 mm 2 mps 650 mmHg 29%

Tomorrow, 26 October, Monday

Time Temperature Precipitation Wind Pressure Humidity
00:00 +27°C° 0.2 mm 2 mps 650 mmHg 31%
01:00 +27°C° 0.2 mm 3 mps 650 mmHg 33%
02:00 +26°C° 0.2 mm 3 mps 650 mmHg 35%
03:00 +25°C° 0 mm 3 mps 650 mmHg 35%
04:00 +25°C° 0 mm 3 mps 650 mmHg 35%
05:00 +23°C° 0 mm 4 mps 650 mmHg 35%
06:00 +25°C° 0.1 mm 4 mps 651 mmHg 31%
07:00 +26°C° 0.1 mm 5 mps 651 mmHg 27%
08:00 +27°C° 0.1 mm 6 mps 652 mmHg 23%
09:00 +29°C° 0.1 mm 5 mps 652 mmHg 22%
10:00 +30°C° 0.1 mm 5 mps 653 mmHg 20%
11:00 +33°C° 0.1 mm 5 mps 653 mmHg 19%
12:00 +33°C° 0 mm 5 mps 652 mmHg 19%
13:00 +33°C° 0 mm 6 mps 652 mmHg 20%
14:00 +34°C° 0 mm 6 mps 651 mmHg 20%
15:00 +34°C° 0 mm 5 mps 651 mmHg 19%
16:00 +34°C° 0 mm 5 mps 651 mmHg 19%
17:00 +34°C° 0 mm 4 mps 650 mmHg 18%
18:00 +31°C° 0 mm 3 mps 650 mmHg 20%
19:00 +30°C° 0 mm 2 mps 650 mmHg 21%
20:00 +29°C° 0 mm 2 mps 650 mmHg 22%
21:00 +28°C° 0 mm 2 mps 650 mmHg 23%
22:00 +27°C° 0 mm 2 mps 650 mmHg 24%
23:00 +26°C° 0 mm 2 mps 651 mmHg 24%

Day after tomorrow, 27 October, Tuesday

Time Temperature Precipitation Wind Pressure Humidity
00:00 +26°C° 0 mm 3 mps 650 mmHg 26%
01:00 +25°C° 0 mm 3 mps 650 mmHg 27%
02:00 +23°C° 0 mm 4 mps 650 mmHg 28%
03:00 +22°C° 0 mm 4 mps 650 mmHg 29%
04:00 +22°C° 0 mm 3 mps 650 mmHg 30%
05:00 +21°C° 0 mm 3 mps 650 mmHg 31%
06:00 +22°C° 0 mm 4 mps 651 mmHg 30%
07:00 +23°C° 0 mm 6 mps 652 mmHg 29%
08:00 +26°C° 0 mm 7 mps 653 mmHg 29%
09:00 +28°C° 0 mm 7 mps 653 mmHg 26%
10:00 +30°C° 0 mm 7 mps 653 mmHg 23%
11:00 +33°C° 0 mm 7 mps 653 mmHg 20%
12:00 +34°C° 0 mm 6 mps 653 mmHg 19%
13:00 +34°C° 0 mm 5 mps 653 mmHg 17%
14:00 +35°C° 0 mm 5 mps 652 mmHg 16%
15:00 +35°C° 0 mm 5 mps 652 mmHg 16%
16:00 +35°C° 0 mm 4 mps 651 mmHg 16%
17:00 +35°C° 0 mm 4 mps 651 mmHg 16%
18:00 +33°C° 0 mm 4 mps 650 mmHg 18%
19:00 +30°C° 0 mm 3 mps 650 mmHg 19%
20:00 +29°C° 0 mm 3 mps 650 mmHg 21%
21:00 +28°C° 0 mm 3 mps 650 mmHg 22%
22:00 +27°C° 0 mm 3 mps 650 mmHg 23%
23:00 +27°C° 0 mm 4 mps 650 mmHg 23%

28 October, Wednesday

Time Temperature Precipitation Wind Pressure Humidity
00:00 +26°C° 0 mm 4 mps 650 mmHg 24%
01:00 +25°C° 0 mm 4 mps 650 mmHg 25%
02:00 +23°C° 0 mm 4 mps 649 mmHg 26%
03:00 +23°C° 0 mm 5 mps 649 mmHg 28%
04:00 +22°C° 0 mm 5 mps 649 mmHg 30%
05:00 +22°C° 0 mm 5 mps 650 mmHg 32%
06:00 +23°C° 0 mm 6 mps 650 mmHg 30%
07:00 +24°C° 0 mm 7 mps 651 mmHg 29%
08:00 +27°C° 0 mm 8 mps 652 mmHg 28%
09:00 +29°C° 0 mm 8 mps 652 mmHg 25%
10:00 +32°C° 0 mm 8 mps 653 mmHg 21%
11:00 +35°C° 0 mm 8 mps 653 mmHg 18%
12:00 +35°C° 0 mm 8 mps 653 mmHg 17%
13:00 +36°C° 0 mm 7 mps 652 mmHg 16%
14:00 +38°C° 0 mm 7 mps 652 mmHg 15%
15:00 +38°C° 0 mm 7 mps 651 mmHg 15%
16:00 +36°C° 0 mm 6 mps 651 mmHg 15%
17:00 +36°C° 0 mm 6 mps 650 mmHg 16%
18:00 +34°C° 0 mm 5 mps 650 mmHg 18%
19:00 +32°C° 0 mm 5 mps 650 mmHg 20%
20:00 +29°C° 0 mm 4 mps 650 mmHg 22%
21:00 +29°C° 0 mm 4 mps 650 mmHg 23%
22:00 +28°C° 0 mm 5 mps 650 mmHg 23%
23:00 +28°C° 0 mm 5 mps 650 mmHg 24%

29 October, Thursday

Time Temperature Precipitation Wind Pressure Humidity
00:00 +27°C° 0 mm 5 mps 650 mmHg 25%
01:00 +26°C° 0 mm 5 mps 649 mmHg 26%
02:00 +25°C° 0 mm 5 mps 649 mmHg 27%
03:00 +25°C° 0 mm 5 mps 649 mmHg 29%
04:00 +23°C° 0 mm 6 mps 649 mmHg 30%
05:00 +22°C° 0 mm 6 mps 650 mmHg 31%
06:00 +24°C° 0 mm 6 mps 650 mmHg 30%
07:00 +26°C° 0 mm 5 mps 651 mmHg 28%
08:00 +27°C° 0 mm 5 mps 652 mmHg 27%
09:00 +29°C° 0 mm 5 mps 653 mmHg 24%
10:00 +32°C° 0 mm 6 mps 653 mmHg 21%
11:00 +34°C° 0 mm 6 mps 653 mmHg 18%
12:00 +35°C° 0 mm 5 mps 653 mmHg 17%
13:00 +36°C° 0 mm 5 mps 653 mmHg 15%
14:00 +37°C° 0 mm 5 mps 652 mmHg 14%
15:00 +37°C° 0 mm 4 mps 652 mmHg 14%
16:00 +37°C° 0 mm 3 mps 651 mmHg 14%
17:00 +36°C° 0 mm 3 mps 651 mmHg 15%
18:00 +34°C° 0 mm 2 mps 651 mmHg 17%
19:00 +32°C° 0 mm 2 mps 651 mmHg 19%
20:00 +30°C° 0 mm 1 mps 651 mmHg 22%
21:00 +29°C° 0 mm 2 mps 651 mmHg 23%
22:00 +29°C° 0 mm 3 mps 652 mmHg 24%
23:00 +28°C° 0 mm 3 mps 652 mmHg 25%

30 October, Friday

Time Temperature Precipitation Wind Pressure Humidity
00:00 +28°C° 0 mm 3 mps 652 mmHg 26%
01:00 +27°C° 0 mm 3 mps 652 mmHg 27%
02:00 +27°C° 0 mm 3 mps 652 mmHg 27%
03:00 +26°C° 0 mm 4 mps 652 mmHg 28%
04:00 +26°C° 0 mm 4 mps 652 mmHg 29%
05:00 +25°C° 0 mm 5 mps 652 mmHg 30%
06:00 +26°C° 0 mm 6 mps 653 mmHg 27%
07:00 +27°C° 0 mm 7 mps 654 mmHg 25%
08:00 +28°C° 0 mm 7 mps 655 mmHg 22%
09:00 +30°C° 0 mm 7 mps 655 mmHg 21%
10:00 +33°C° 0 mm 8 mps 655 mmHg 19%
11:00 +35°C° 0 mm 8 mps 656 mmHg 17%
12:00 +36°C° 0 mm 7 mps 655 mmHg 16%
13:00 +38°C° 0 mm 7 mps 655 mmHg 15%
14:00 +39°C° 0 mm 7 mps 655 mmHg 14%
15:00 +38°C° 0 mm 6 mps 654 mmHg 13%
16:00 +38°C° 0 mm 6 mps 653 mmHg 13%
17:00 +36°C° 0 mm 6 mps 653 mmHg 13%
18:00 +35°C° 0 mm 6 mps 653 mmHg 14%
19:00 +33°C° 0 mm 5 mps 653 mmHg 15%
20:00 +30°C° 0 mm 5 mps 653 mmHg 16%
21:00 +29°C° 0 mm 6 mps 653 mmHg 16%
22:00 +29°C° 0 mm 6 mps 653 mmHg 17%
23:00 +28°C° 0 mm 7 mps 653 mmHg 17%
Show more

We Need Your Consent

Meteoprog and our Service Providers may store and access personal data such as cookies, device identifiers or other similar technologies on your device and process such data to personalise content and ads, as well as provide social media features and to analyse the traffic.

  • Store and/or access information on your device

    Cookies, device identifiers or other information can be stored or accessed on your device for the purposes indicated above.

  • Personalised ads and content, ad and content measurement, audience insights, and products development

    Ads and content can be personalised based on a profile. More data can be added to better personalise ads and content. Ad and content performance can be measured. Insights about the audience who saw the ads and content can be derived. Such data can be used to develop or improve user’s experience, systems and software.

By clicking ‘I Agree’ you will allow the use of indicated cookies, device identifiers, web beacons or other similar technologies. Your settings can be changed in the browser on your device.

For certain purposes, legitimate interests may be relied on, rather than consent. You can read more about this in our Privacy and Cookie Policy.